Location: Unspecified
(0.0000°N, 0.0000°E)
Time: 15:43:05
(UTC+00:00)

ARGOS - Visible Passes

Search period start: 03 July 2022 00:00
Search period end: 13 July 2022 00:00
Orbit: 821 x 834 km, 98.4° (Epoch: 02 July)

Date Brightness Start Highest point End Pass type
(mag) Time Alt. Az. Time Alt. Az. Time Alt. Az.
04 Jul 5.8 05:21:15 10° ENE 05:24:41 17° ESE 05:28:07 10° SE visible
05 Jul 5.8 19:23:20 10° SW 19:26:42 17° WSW 19:30:04 10° WNW visible
06 Jul 5.1 19:03:33 10° SSW 19:08:05 28° WSW 19:12:37 10° NW visible
07 Jul 4.3 18:44:19 10° S 18:49:26 46° WSW 18:54:35 10° NNW visible
08 Jul 3.4 18:25:25 10° S 18:30:49 77° WSW 18:36:12 10° NNW visible
09 Jul 5.7 05:27:31 10° NE 05:31:30 21° ESE 05:35:28 10° SSE visible
10 Jul 6.0 05:10:42 10° ENE 05:12:53 12° ESE 05:15:05 10° SE visible
10 Jul 5.9 19:30:56 10° SW 19:33:31 14° WSW 19:36:05 10° WNW visible
11 Jul 5.4 19:10:45 10° SSW 19:14:54 23° WSW 19:19:03 10° NW visible
12 Jul 4.7 18:51:19 10° S 18:56:16 37° WSW 19:01:13 10° NW visible
